EXACTVIEW-1 (ADS-1B)

Last updated on Sat Jun 21 2025 00:02:28 GMT+0000 (Coordinated Universal Time)

1 38709U 12039C 25171.53994305 .00000080 00000+0 53931-4 0 9998 2 38709 98.9538 276.3875 0011785 130.7277 229.4927 14.24821144671200
UTC large
Height (km)
Speed (km/s)
/
Latitude / Longitude
Inclination (degrees)
Orbital Period (minutes)
Azimuth
Elevation
Range (km)
Doppler Factor

Next 0 passes for location: London (51.5072 / 0.1276)

Sorry there are no passes over London.